Starlink 3386

operational
NORAD ID: 51126 Int'l Des: 2022-005 Owner: SPXS Country: US Constellation: starlink
LEOCIRCULAR

About Starlink 3386

Description loading...

Live Position

Loading 3D Globe...

Upcoming Passes

Altitude History

Altitude vs Time

uPlot chart will show altitude changes over time

Two-Line Element Set

1 51126U 22005Y 26062.00148145 -.00000316 00000-0 -17741-5 0 9990
2 51126 53.2187 329.1571 0001264 87.3217 272.7920 15.08839117227735
Epoch: Mar 3, 2026 • Age: 22 hours

Current Status

Altitude 542.5 km
Velocity 7.59 km/s
Sub-Earth Point -9.26°S, 177.27°W
Launch Date Jan 19, 2022
Age 4.1 years
Type internet

Technical Details

Classification Payload
Mass 297.00 kg
Dry Mass 275.00 kg
Total Mass 297.00 kg
Length 0.20 m
Diameter 2.80 m
Span 9.00 m
Shape Box + pan
Manufacturer SPXS
Bus Type Starlink
Phase Status In Orbit
Owner/State SPXS/US

Large Constellations

Loading constellations...